GW0835 Weather Reports


Display with metric or nautical units.
time (UTC)temp
F
wind
direction
speed
MPH
gust
MPH
rain 1hr
in
rain 24hr
in
rain mn
in
humidity
%
barometer
mb
20260905230104 56 281 8.0 16.0 0.00 0.00 0.00 82 1015.7
20260905224612 56 267 7.0 17.0 0.00 0.00 0.00 81 1015.5
20260905223058 56 274 7.0 13.0 0.00 0.00 0.00 81 1015.7
20260905221605 56 257 7.0 14.0 0.00 0.00 0.00 81 1015.6
20260905220118 56 265 10.0 18.0 0.00 0.00 0.00 81 1015.5
20260905214558 56 292 6.0 17.0 0.00 0.05 0.00 81 1015.4
20260905213057 57 239 8.0 14.0 0.00 0.05 0.00 80 1015.5
20260905211554 57 265 6.0 15.0 0.00 0.05 0.00 80 1015.4
20260905210109 57 234 7.0 16.0 0.00 0.05 0.00 80 1015.2
20260905204557 57 244 6.0 13.0 0.00 0.13 0.00 80 1015.1
20260905203117 57 252 6.0 16.0 0.00 0.13 0.00 79 1015.0
20260905201604 57 248 7.0 13.0 0.00 0.13 0.00 79 1015.1
20260905200106 57 262 7.0 14.0 0.00 0.13 0.00 79 1014.9
20260905194609 57 223 8.0 12.0 0.00 0.13 0.00 79 1014.8
20260905193104 57 234 7.0 12.0 0.00 0.13 0.00 79 1014.9
20260905191611 57 246 5.0 12.0 0.00 0.13 0.00 79 1015.2
20260905184602 57 229 5.0 13.0 0.00 0.13 0.00 78 1015.5
20260905183057 58 210 7.0 12.0 0.00 0.13 0.00 77 1015.6
20260905181551 58 234 4.0 10.0 0.00 0.13 0.00 76 1015.4
20260905180104 58 237 5.0 8.0 0.00 0.13 0.00 75 1015.4
20260905174601 58 273 3.0 7.0 0.00 0.13 0.00 74 1015.2
20260905173055 58 238 4.0 10.0 0.00 0.13 0.00 74 1015.3
20260905171615 59 256 6.0 10.0 0.00 0.13 0.00 73 1015.0
20260905170106 60 250 5.0 11.0 0.00 0.13 0.00 72 1014.9
20260905164602 61 254 5.0 10.0 0.00 0.13 0.00 70 1015.1
20260905163105 62 267 8.0 12.0 0.00 0.13 0.00 69 1015.1
20260905161604 62 242 8.0 16.0 0.00 0.13 0.00 70 1015.0
20260905160110 64 290 8.0 19.0 0.00 0.13 0.00 65 1014.7
20260905154646 65 286 5.0 10.0 0.00 0.13 0.00 61 1014.2
20260905153104 65 283 8.0 13.0 0.00 0.13 0.00 59 1014.1
20260905151604 66 279 6.0 16.0 0.00 0.13 0.00 59 1014.0
20260905150109 67 248 10.0 20.0 0.00 0.13 0.00 57 1013.9
20260905144609 67 275 9.0 17.0 0.00 0.13 0.00 57 1013.9
20260905143104 67 270 10.0 21.0 0.00 0.13 0.00 58 1013.6
20260905141604 67 289 6.0 11.0 0.00 0.13 0.00 60 1013.7
20260905140103 66 286 6.0 13.0 0.00 0.13 0.00 62 1013.7
20260905134603 66 290 8.0 20.0 0.00 0.13 0.00 60 1013.7
20260905133102 67 290 8.0 15.0 0.00 0.13 0.00 58 1013.5
20260905131554 67 273 9.0 15.0 0.00 0.13 0.00 60 1013.6
20260905130059 66 290 8.0 16.0 0.00 0.13 0.00 60 1013.4
20260905124558 68 271 11.0 19.0 0.00 0.13 0.00 58 1013.4
20260905123105 68 306 10.0 23.0 0.00 0.13 0.00 59 1013.4
20260905121559 67 306 8.0 17.0 0.00 0.13 0.00 59 1013.3
20260905120057 68 284 9.0 15.0 0.00 0.13 0.00 61 1013.2
20260905114606 67 277 11.0 17.0 0.00 0.13 0.00 63 1013.2
20260905113101 66 285 9.0 13.0 0.00 0.13 0.00 67 1013.2
20260905111627 65 293 6.0 12.0 0.00 0.13 0.00 68 1013.2
20260905110106 64 293 5.0 11.0 0.00 0.13 0.00 71 1013.0
20260905104614 63 300 5.0 12.0 0.00 0.13 0.00 73 1013.1
20260905103102 65 300 9.0 24.0 0.00 0.13 0.00 68 1012.8
20260905101559 66 308 10.0 17.0 0.00 0.13 0.00 65 1012.7
20260905100059 65 302 11.0 21.0 0.00 0.13 0.00 65 1012.7
20260905094716 65 298 8.0 14.0 0.00 0.13 0.00 67 1012.6
20260905093128 65 271 10.0 15.0 0.00 0.13 0.00 65 1012.5
20260905091603 65 264 9.0 18.0 0.00 0.13 0.00 66 1012.4
20260905090056 64 268 7.0 19.0 0.00 0.13 0.00 70 1012.5
20260905084606 64 293 9.0 18.0 0.00 0.13 0.00 71 1012.7
20260905083103 63 222 6.0 14.0 0.00 0.13 0.00 75 1012.6
20260905081557 63 293 10.0 17.0 0.00 0.13 0.00 72 1012.3
20260905080108 63 279 8.0 20.0 0.00 0.13 0.00 74 1012.2
20260905074602 62 267 9.0 18.0 0.00 0.13 0.00 74 1012.2
20260905073110 62 285 8.0 15.0 0.00 0.13 0.00 75 1012.2
20260905071559 62 284 10.0 22.0 0.00 0.13 0.00 75 1012.0
20260905070058 61 273 6.0 18.0 0.00 0.13 0.00 78 1011.9
20260905064552 61 275 9.0 15.0 0.00 0.13 0.00 79 1011.7
20260905063103 60 268 9.0 16.0 0.00 0.13 0.00 78 1011.4
20260905061604 60 282 7.0 13.0 0.00 0.13 0.00 78 1011.4
20260905060107 60 280 7.0 12.0 0.00 0.13 0.00 78 1011.1
20260905054604 59 292 8.0 12.0 0.00 0.13 0.00 79 1011.0
20260905053058 59 281 8.0 18.0 0.00 0.13 0.00 79 1010.9
20260905051609 60 270 9.0 15.0 0.00 0.13 0.00 79 1010.3
20260905050105 59 290 8.0 20.0 0.00 0.13 0.00 80 1010.1
20260905044556 60 281 7.0 12.0 0.00 0.13 0.00 85 1009.7
20260905043100 60 284 8.0 17.0 0.00 0.13 0.00 85 1009.5
20260905041608 61 232 8.0 20.0 0.00 0.13 0.00 86 1009.2
20260905040108 61 269 11.0 18.0 0.00 0.13 0.00 86 1008.9
20260905034550 61 252 10.0 21.0 0.00 0.13 0.00 86 1008.7
20260905033108 61 251 11.0 20.0 0.00 0.13 0.00 87 1008.2
20260905031604 61 238 12.0 20.0 0.00 0.13 0.00 87 1008.3
20260905030110 61 248 10.0 18.0 0.00 0.13 0.00 87 1008.2
20260905024604 61 281 10.0 19.0 0.00 0.13 0.00 87 1008.2
20260905023102 61 245 11.0 19.0 0.00 0.13 0.00 87 1008.1
20260905021608 61 244 11.0 21.0 0.00 0.13 0.00 87 1008.0
20260905020056 62 246 9.0 26.0 0.00 0.13 0.00 87 1007.7
20260905014553 62 253 15.0 23.0 0.00 0.13 0.00 87 1007.9
20260905013120 63 256 12.0 20.0 0.00 0.13 0.00 88 1007.7
20260905011610 63 213 10.0 17.0 0.00 0.13 0.00 90 1007.4
20260905010100 63 252 10.0 17.0 0.00 0.13 0.00 90 1007.4
20260905004557 63 231 11.0 16.0 0.00 0.16 0.00 90 1007.1
20260905003102 63 241 8.0 15.0 0.00 0.16 0.00 89 1007.2
20260905001601 63 248 10.0 16.0 0.00 0.16 0.00 89 1007.2
20260905000109 63 238 10.0 18.0 0.00 0.16 0.00 89 1007.0
20260904234607 63 250 8.0 15.0 0.00 0.16 0.00 91 1006.7
20260904233100 63 248 6.0 11.0 0.00 0.16 0.00 92 1006.9
20260904231600 63 229 5.0 10.0 0.00 0.16 0.00 92 1006.9